[[{"header":{"parameterUnit":"m.s-1","parameterCategory":1,"la1":30.2991,"la2":30.254,"lo1":-89.0895,"lo2":-89.0444,"dy":0.0017,"dx":0.0017,"nx":28,"ny":28,"refTime":"2023-10-06T03:00:00:Z","depth":0,"parameterNumber":2,"parameterNumberName":"U-component_of_WINDS"},"data":[0,0,0,0,0,0,0,0,0,0,0,0,0,0,0,0,0,0,0,0,0,0,0,0,0,0,0,0,0,0,0,0,0,0,0,0,0,0,0,0,0,0,0,0,0,0,0,0,0,0,0,0,0,0,0,0,0,0,-1.5583,-1.5584,0,-1.5605,-1.5606,-1.5606,-1.5574,-1.5573,-1.5572,-1.5571,-1.5593,-1.5595,-1.5597,0,0,0,0,0,0,0,0,0,0,0,0,0,-1.5513,-1.5515,-1.5583,-1.5584,-1.5584,-1.5605,-1.5606,-1.5606,-1.5574,-1.5573,-1.5572,-1.557,-1.5593,-1.5595,-1.5597,0,0,0,0,0,0,0,0,0,0,0,0,0,-1.554,-1.5515,-1.5583,-1.5571,-1.557,-1.5605,-1.5606,-1.5606,-1.5575,-1.5573,-1.5571,-1.557,-1.5592,-1.5595,-1.5597,-1.5646,0,0,-1.5605,-1.5606,0,0,0,0,0,0,0,0,-1.5539,-1.5543,-1.5572,-1.5572,-1.5571,-1.5585,-1.5589,-1.5619,-1.5575,-1.5573,-1.5571,-1.5569,-1.5592,-1.5594,-1.5602,-1.5647,-1.5648,-1.5605,-1.5606,-1.5607,-1.5608,0,0,0,0,0,0,0,-1.5537,-1.5542,-1.5592,-1.5573,-1.5572,-1.5564,-1.5566,-1.5595,-1.5592,-1.5573,-1.5571,-1.5574,-1.5591,-1.56,-1.5603,-1.5648,-1.5605,-1.5607,-1.5608,-1.5609,-1.5734,-1.5735,0,0,0,0,0,0,-1.5537,-1.554,-1.5591,-1.5593,-1.555,-1.5566,-1.5569,-1.5582,-1.5591,-1.5591,-1.5575,-1.5572,-1.5597,-1.56,-1.5603,-1.5661,-1.5607,-1.561,-1.5611,-1.5732,-1.5734,-1.5736,0,0,0,0,0,0,-1.5535,-1.5541,-1.559,-1.5566,-1.5572,-1.5569,-1.5585,-1.5584,-1.5592,-1.5593,-1.5592,-1.5585,-1.5595,-1.56,-1.5635,-1.5661,-1.5611,-1.5613,-1.573,-1.5733,-1.5735,-1.5777,0,0,0,0,0,0,-1.5533,-1.5541,-1.556,-1.5567,-1.5573,-1.5623,-1.5587,-1.5585,-1.5597,-1.5593,-1.5602,-1.5601,-1.5594,-1.5632,-1.5638,-1.5664,-1.5615,-1.5727,-1.5731,-1.5734,-1.5774,-1.5781,-1.5788,0,0,0,0,0,-1.5531,-1.5571,-1.5561,-1.5567,-1.5596,-1.5624,-1.5628,-1.5619,-1.5599,-1.5618,-1.5618,-1.5601,-1.5657,-1.5636,-1.5642,-1.567,-1.5726,-1.573,-1.5734,-1.5771,-1.578,-1.5788,0,0,0,0,0,0,-1.5568,-1.5572,-1.5561,-1.5604,-1.5614,-1.5619,-1.5642,-1.5629,-1.5645,-1.5641,-1.5629,-1.5631,-1.567,-1.5673,-1.5649,-1.5717,-1.5688,-1.5694,-1.5714,-1.5723,-1.5729,-1.5728,-1.5617,0,0,0,0,0,-1.5581,-1.5603,-1.5605,-1.5643,-1.5649,-1.5645,-1.5657,-1.5649,-1.5659,-1.5663,-1.5666,-1.5676,-1.5696,-1.5709,-1.5727,-1.5773,-1.5775,-1.5795,-1.5802,-1.5808,-1.5813,-1.5838,-1.5847,-1.575,-1.575,-1.5749,0,0,-1.5608,-1.5613,-1.5628,-1.5651,-1.5658,-1.5681,-1.5649,-1.5675,-1.5692,-1.5667,-1.5701,-1.5703,-1.5713,-1.5755,-1.5773,-1.5759,-1.584,-1.5813,-1.5818,-1.582,-1.5843,-1.5852,-1.5861,-1.5752,-1.5752,-1.5751,0,0,-1.567,-1.5676,-1.5709,-1.5716,-1.5726,-1.5723,-1.5731,-1.5738,-1.5738,-1.5772,-1.5754,-1.5774,-1.5808,-1.5816,-1.5825,-1.5889,-1.5875,-1.5896,-1.5933,-1.5957,-1.5964,-1.5971,-1.5995,-1.6003,-1.5901,-1.5901,-1.5901,0,-1.5703,-1.5738,-1.5727,-1.5754,-1.5765,-1.5743,-1.5775,-1.5783,-1.5799,-1.5807,-1.579,-1.5833,-1.5838,-1.5881,-1.5897,-1.5904,-1.5913,-1.5895,-1.5964,-1.5971,-1.5977,-1.5999,-1.6008,-1.5903,-1.5903,-1.5903,-1.5902,0,-1.5778,-1.5802,-1.5827,-1.5843,-1.5856,-1.5886,-1.588,-1.5894,-1.5885,-1.5883,-1.5918,-1.5923,-1.5942,-1.5952,-1.5943,-1.5993,-1.5984,-1.5966,-1.5937,-1.5989,-1.601,-1.6018,-1.5907,-1.5906,-1.5905,-1.5905,0,0,-1.5865,-1.5874,-1.5884,-1.589,-1.59,-1.5919,-1.5947,-1.5966,-1.5979,-1.599,-1.6014,-1.6043,-1.6026,-1.6036,-1.6028,-1.6049,-1.61,-1.6028,-1.6028,-1.6042,-1.6156,-1.617,-1.618,-1.6089,-1.6091,-1.6092,-1.6155,0,-1.5928,-1.5977,-1.5968,-1.6017,-1.6039,-1.6017,-1.6042,-1.6051,-1.605,-1.6068,-1.6067,-1.6088,-1.6064,-1.607,-1.609,-1.6089,-1.6123,-1.6085,-1.6112,-1.6113,-1.6111,-1.6191,-1.6206,-1.6265,-1.6163,-1.6164,-1.6165,0,-1.6008,-1.6022,-1.6073,-1.6079,-1.6088,-1.611,-1.6126,-1.6144,-1.6153,-1.6151,-1.6161,-1.6149,-1.6177,-1.6147,-1.6185,-1.616,-1.617,-1.6171,-1.6173,-1.6176,-1.6143,-1.6197,-1.6284,-1.6293,-1.6178,-1.6177,-1.6176,0,-1.6067,-1.6099,-1.6133,-1.614,-1.6147,-1.6164,-1.6168,-1.6175,-1.6186,-1.62,-1.6207,-1.6224,-1.6234,-1.6247,-1.6239,-1.6218,-1.6279,-1.6248,-1.6278,-1.6279,-1.6293,-1.6293,-1.6384,-1.6298,-1.6298,-1.6298,-1.6298,0,-1.6138,-1.6171,-1.616,-1.6182,-1.6217,-1.6205,-1.624,-1.6241,-1.6248,-1.6269,-1.6251,-1.6271,-1.6259,-1.6278,-1.6272,-1.6305,-1.6309,-1.6308,-1.6306,-1.631,-1.6311,-1.6318,-1.6314,-1.63,-1.63,-1.6299,-1.6299,0,-1.6211,-1.6206,-1.6242,-1.6246,-1.6247,-1.6273,-1.6276,-1.6296,-1.6293,-1.632,-1.6326,-1.6321,-1.6343,-1.6336,-1.6359,-1.6355,-1.6397,-1.6389,-1.6394,-1.6393,-1.6423,-1.6421,-1.6523,-1.6536,-1.6442,-1.6442,-1.6443,0,-1.6258,-1.6282,-1.6288,-1.6301,-1.6306,-1.6327,-1.6339,-1.6328,-1.6341,-1.6352,-1.637,-1.639,-1.6405,-1.644,-1.6439,-1.6457,-1.645,-1.6484,-1.6452,-1.6456,-1.6451,-1.645,-1.6453,-1.6491,-1.6492,-1.6493,-1.6494,0,-1.6341,-1.6337,-1.6355,-1.6371,-1.6386,-1.6398,-1.6409,-1.642,-1.641,-1.6425,-1.6447,-1.6459,-1.6482,-1.6502,-1.6517,-1.6521,-1.6506,-1.6504,-1.6512,-1.6517,-1.6519,-1.6519,-1.6413,-1.6502,-1.6501,-1.6501,-1.65,-1.65,-1.6403,-1.6423,-1.6431,-1.6451,-1.6458,-1.6468,-1.6487,-1.6486,-1.6504,-1.6522,-1.6514,-1.654,-1.6547,-1.6566,-1.6572,-1.6591,-1.6578,-1.6589,-1.6592,-1.6595,-1.66,-1.6515,-1.6593,-1.6593,-1.6593,-1.6593,-1.6593,0,-1.6486,-1.649,-1.6508,-1.6524,-1.6539,-1.6523,-1.6534,-1.6549,-1.6571,-1.6579,-1.6594,-1.6619,-1.6638,-1.6638,-1.6655,-1.6671,-1.6664,-1.6676,-1.6675,-1.6676,-1.661,-1.6602,-1.668,-1.668,-1.668,-1.668,-1.668,-1.668,-1.6531,-1.6565,-1.6562,-1.6599,-1.6602,-1.6626,-1.6634,-1.6643,-1.665,-1.6678,-1.6694,-1.6693,-1.6698,-1.6716,-1.6732,-1.6731,-1.6739,-1.6753,-1.675,-1.6689,-1.6681,-1.6672,-1.6664,-1.6755,-1.6755,-1.6814,-1.6815,-1.6815]},{"header":{"parameterUnit":"m.s-1","parameterCategory":1,"la1":30.2991,"la2":30.254,"lo1":-89.0895,"lo2":-89.0444,"dy":0.0017,"dx":0.0017,"nx":28,"ny":28,"refTime":"2023-10-06T03:00:00:Z","depth":0,"parameterNumber":3,"parameterNumberName":"V-component_of_WINDS"},"data":[0,0,0,0,0,0,0,0,0,0,0,0,0,0,0,0,0,0,0,0,0,0,0,0,0,0,0,0,0,0,0,0,0,0,0,0,0,0,0,0,0,0,0,0,0,0,0,0,0,0,0,0,0,0,0,0,0,0,-7.6978,-7.6979,0,-7.705,-7.7051,-7.7051,-7.6977,-7.6974,-7.6971,-7.6968,-7.7036,-7.704,-7.7045,0,0,0,0,0,0,0,0,0,0,0,0,0,-7.6772,-7.6776,-7.6978,-7.6979,-7.698,-7.705,-7.7051,-7.7052,-7.6977,-7.6974,-7.697,-7.6967,-7.7034,-7.704,-7.7045,0,0,0,0,0,0,0,0,0,0,0,0,0,-7.6854,-7.6777,-7.6978,-7.6951,-7.695,-7.7049,-7.7051,-7.7052,-7.6978,-7.6974,-7.6969,-7.6965,-7.7033,-7.7039,-7.7046,-7.7174,0,0,-7.7066,-7.7069,0,0,0,0,0,0,0,0,-7.6849,-7.6862,-7.6954,-7.6953,-7.6952,-7.7,-7.7003,-7.7092,-7.6979,-7.6967,-7.6968,-7.6963,-7.7027,-7.7034,-7.7057,-7.7177,-7.718,-7.7067,-7.7071,-7.7074,-7.7076,0,0,0,0,0,0,0,-7.6844,-7.6858,-7.7006,-7.6956,-7.6954,-7.6934,-7.6941,-7.7019,-7.702,-7.6968,-7.6963,-7.6972,-7.7025,-7.705,-7.7058,-7.7181,-7.7067,-7.7073,-7.7077,-7.708,-7.741,-7.7414,0,0,0,0,0,0,-7.6842,-7.6854,-7.7004,-7.7008,-7.6889,-7.6941,-7.6949,-7.6989,-7.7019,-7.702,-7.6976,-7.6969,-7.7041,-7.705,-7.706,-7.7212,-7.7074,-7.708,-7.7084,-7.7405,-7.7411,-7.7416,0,0,0,0,0,0,-7.6838,-7.6856,-7.7001,-7.693,-7.6947,-7.695,-7.6995,-7.6992,-7.7017,-7.7025,-7.7025,-7.7002,-7.7038,-7.705,-7.7146,-7.7214,-7.7083,-7.7089,-7.74,-7.7407,-7.7414,-7.7518,0,0,0,0,0,0,-7.6832,-7.6855,-7.6905,-7.6932,-7.6951,-7.7088,-7.6999,-7.6997,-7.703,-7.7021,-7.7049,-7.705,-7.7036,-7.7137,-7.7153,-7.722,-7.7095,-7.7394,-7.7403,-7.7411,-7.7509,-7.7528,-7.7544,0,0,0,0,0,-7.6825,-7.693,-7.6908,-7.6926,-7.7013,-7.7092,-7.7103,-7.7086,-7.7036,-7.7085,-7.709,-7.7049,-7.7204,-7.7147,-7.7165,-7.7235,-7.7389,-7.74,-7.7411,-7.7501,-7.7524,-7.7544,0,0,0,0,0,0,-7.6908,-7.6933,-7.6908,-7.7025,-7.7058,-7.708,-7.7141,-7.7111,-7.7157,-7.7147,-7.7122,-7.7129,-7.7231,-7.7242,-7.718,-7.7361,-7.7288,-7.7303,-7.735,-7.7373,-7.739,-7.7385,-7.71,0,0,0,0,0,-7.694,-7.7004,-7.7021,-7.7123,-7.7141,-7.7139,-7.7172,-7.7157,-7.7188,-7.7201,-7.7213,-7.7244,-7.7299,-7.7336,-7.7388,-7.751,-7.7515,-7.7567,-7.7585,-7.7599,-7.7612,-7.7678,-7.7702,-7.7451,-7.7451,-7.7451,0,0,-7.7007,-7.7028,-7.707,-7.714,-7.7163,-7.7229,-7.715,-7.7222,-7.727,-7.7211,-7.7304,-7.7314,-7.7346,-7.7457,-7.7505,-7.7469,-7.7683,-7.7613,-7.7625,-7.763,-7.7692,-7.7716,-7.7737,-7.7458,-7.7457,-7.7456,0,0,-7.7162,-7.7185,-7.7273,-7.7298,-7.7335,-7.7333,-7.7355,-7.7382,-7.7387,-7.748,-7.7437,-7.7493,-7.7589,-7.7614,-7.764,-7.7807,-7.777,-7.7824,-7.7917,-7.7982,-7.8001,-7.8019,-7.8079,-7.8101,-7.7836,-7.7837,-7.7837,0,-7.724,-7.7339,-7.7321,-7.7397,-7.7429,-7.7381,-7.7469,-7.7494,-7.7545,-7.7568,-7.7527,-7.7647,-7.7666,-7.7782,-7.7823,-7.7844,-7.7867,-7.782,-7.8,-7.8018,-7.8034,-7.8091,-7.8113,-7.7843,-7.7842,-7.7842,-7.7841,0,-7.7433,-7.7502,-7.7568,-7.7622,-7.7661,-7.7743,-7.7736,-7.7778,-7.7759,-7.7761,-7.7856,-7.7877,-7.7932,-7.7958,-7.794,-7.8072,-7.8048,-7.8005,-7.793,-7.8064,-7.8117,-7.8139,-7.7852,-7.785,-7.7848,-7.7846,0,0,-7.7642,-7.7686,-7.7711,-7.7735,-7.7773,-7.7825,-7.7904,-7.7961,-7.7998,-7.8034,-7.81,-7.8183,-7.8143,-7.8172,-7.8156,-7.8213,-7.8345,-7.8161,-7.8162,-7.8196,-7.8492,-7.8526,-7.8552,-7.8321,-7.8325,-7.8328,-7.849,0,-7.7799,-7.7939,-7.7926,-7.8058,-7.8122,-7.8077,-7.8146,-7.8176,-7.8181,-7.8234,-7.8237,-7.8298,-7.824,-7.8257,-7.8312,-7.8317,-7.8404,-7.8305,-7.8381,-7.8384,-7.8375,-7.8579,-7.8615,-7.8767,-7.851,-7.8514,-7.8516,0,-7.8001,-7.8048,-7.8188,-7.8218,-7.8244,-7.8306,-7.8358,-7.841,-7.8442,-7.8441,-7.8475,-7.8449,-7.8528,-7.8452,-7.856,-7.8493,-7.8523,-7.8531,-7.8536,-7.8543,-7.8459,-7.8592,-7.8814,-7.8838,-7.8549,-7.8546,-7.8544,0,-7.8141,-7.8239,-7.8335,-7.8357,-7.8394,-7.8439,-7.8456,-7.8485,-7.8521,-7.8564,-7.8587,-7.8639,-7.8667,-7.8707,-7.8696,-7.8642,-7.8806,-7.8729,-7.8807,-7.8808,-7.8844,-7.8842,-7.9075,-7.8863,-7.8862,-7.8862,-7.8861,0,-7.8318,-7.8405,-7.8399,-7.8459,-7.8555,-7.8538,-7.8634,-7.8644,-7.8671,-7.8731,-7.8694,-7.8751,-7.8732,-7.8787,-7.8778,-7.8869,-7.8882,-7.8882,-7.8879,-7.8887,-7.8887,-7.8906,-7.8895,-7.8868,-7.8866,-7.8865,-7.8864,0,-7.849,-7.849,-7.8593,-7.862,-7.8629,-7.8699,-7.8721,-7.8777,-7.8778,-7.8855,-7.8872,-7.8874,-7.8937,-7.893,-7.8999,-7.8994,-7.9107,-7.909,-7.9097,-7.9093,-7.9172,-7.9165,-7.9426,-7.946,-7.9225,-7.9227,-7.9229,0,-7.8604,-7.8671,-7.8706,-7.8745,-7.8766,-7.8829,-7.8865,-7.8851,-7.889,-7.8933,-7.8984,-7.9044,-7.9092,-7.9195,-7.9202,-7.9255,-7.924,-7.9328,-7.9247,-7.9253,-7.9242,-7.9239,-7.9246,-7.9344,-7.9346,-7.9348,-7.935,0,-7.8806,-7.8803,-7.8858,-7.8915,-7.896,-7.9003,-7.9041,-7.9074,-7.9063,-7.9109,-7.9175,-7.9212,-7.9285,-7.9345,-7.9396,-7.9411,-7.938,-7.9376,-7.9396,-7.9405,-7.9406,-7.9408,-7.9141,-7.937,-7.9368,-7.9366,-7.9365,-7.9364,-7.8953,-7.9011,-7.9046,-7.9109,-7.9137,-7.9174,-7.9229,-7.9238,-7.9293,-7.9353,-7.9341,-7.9415,-7.9446,-7.9511,-7.9532,-7.9589,-7.9557,-7.9587,-7.9594,-7.9602,-7.9612,-7.9397,-7.9598,-7.9597,-7.9597,-7.9596,-7.9596,0,-7.9154,-7.9175,-7.9233,-7.929,-7.934,-7.9307,-7.9348,-7.9392,-7.9458,-7.9491,-7.954,-7.9615,-7.9674,-7.9686,-7.9742,-7.9785,-7.9772,-7.98,-7.9797,-7.9801,-7.9637,-7.9614,-7.981,-7.981,-7.981,-7.981,-7.981,-7.981,-7.9265,-7.9362,-7.9363,-7.9473,-7.9492,-7.9566,-7.9593,-7.9627,-7.9653,-7.974,-7.979,-7.9798,-7.9823,-7.988,-7.9932,-7.9934,-7.9957,-7.9991,-7.9988,-7.9834,-7.9813,-7.9792,-7.9771,-7.9996,-7.9996,-8.0147,-8.0148,-8.0149]}]]